Weather in Sharbakty

Kazakhstan     52°29′19″N   78°09′31″E
temp.,
°C
wind,
m/s
gust,
m/s
humid.,
%
clouds,
%
prec.,
mm/h
press.,
hPa
HPBL,
m
18 may, tue
tue1800:00+21ssw584526 0.0 1013100
03:00+21sw817446 0.1 1011384
06:00+19wsw7125432 0.1 1011283
09:00+26wnw68347 0.0 1009510
12:00+30w69255 0.0 10092294
15:00+29w69269 0.1 10071498
18:00+30nw7102414 0.1 10062932
21:00+20nnw11155776 0.5 1009635
19 may, wed
wed1900:00+17w33706 1.0 100753
03:00+15wnw33785 0.0 100644
06:00+15nnw6983100 0.0 1008502
09:00+16n786897 0.0 1009955
12:00+16n675895 0.1 10101302
15:00+16n6851100 0.1 10111620
18:00+15n7948100 0.1 10121417
21:00+13n584897 0.0 10141181
20 may, thu
thu2000:00+11nne81042100 0.0 1015663
03:00+7n510470 0.0 1016303
06:00+7nnw37505 0.0 1018206
09:00+11nnw7113989 0.0 10191918
12:00+13nnw8103460 0.0 10192398
15:00+14nnw9102693 0.0 10192439
18:00+12n8924100 0.0 10211921
21:00+9nne473579 0.0 1023178
21 may, fri
fri2100:00+7ene33425 0.0 102437
03:00+5ese224353 0.0 102522
06:00+6sse3443100 0.0 102699
09:00+10sse433084 0.0 10271098
12:00+13sse442466 0.0 10261572
15:00+16sse442024 0.0 10251827
18:00+16sse441912 0.0 10251830
21:00+12se452789 0.0 102669
22 may, sat
sat2200:00+10sse4931100 0.0 1026145
03:00+9s4934100 0.0 1026167
06:00+8s4104190 0.0 1027234
09:00+15s56269 0.0 1026597
12:00+20sw332057 0.0 10251309
15:00+22wsw331894 0.0 10231488
18:00+23wnw34227 0.0 10221419
21:00+18nw22330 0.0 102311